sat.trackr.live / text

‹ back to catalog

STARLINK-32770

NORAD 62741 · 2025-014G

PAYLOAD ACTIVE UNKNOWN

§ Identity

Operator
Country
US
Launch date
2025-01-21
Launch site
AFETR
Launch vehicle
Mass (kg)
RCS (m²)

Purposes: comms

External: N2YO · Heavens-Above · Gunter

§ Orbital elements

Epoch: 2026-05-24T13:30:39.400128Z

Period
94.27 min
Inclination
43.0046°
Eccentricity
0.0001664
Mean motion
15.27591322 rev/d
Perigee alt
481.9 km
Apogee alt
484.2 km
Semi-major
6,861.2 km
B*
5.5168e-4
RAAN
85.6904°
Arg perigee
276.3143°
Mean anomaly
83.7519°
Rev number
7,486

§ Raw data

STARLINK-327701 62741U 25014G   26144.56295602  .00014955  00000+0  55168-3 0  99952 62741  43.0046  85.6904 0001664 276.3143  83.7519 15.27591322 74869

JSON: /api/v1/satellites/62741 · /tle

For live sub-satellite position, see the globe view (requires WebGL).

§ Visibility from observer

Set your observer location to see the next 7 days of passes ≥ 10°. The values pass through the URL so the page stays shareable.

No JS? Fill the form by hand. The geolocation button needs JavaScript.